Terminal Aerodrome Forecast
Issued by NWS

Home | Current Version | Previous Version | Text Only | Print | Product List | Glossary On
Versions: 1 2 3 4 5 6 7 8 9 10 11 12 13 14 15 16 17 18 19
000
FTUS46 KLOX 032345
TAFSBA
TAF
KSBA 032345Z 0400/0424 25008KT P6SM SKC
     FM040300 VRB03KT P6SM SKC
     FM040700 VRB03KT 5SM HZ OVC007
     FM041600 VRB03KT 6SM HZ OVC010
     FM041800 20006KT P6SM BKN012
     FM042100 26009KT P6SM SKC=

USA.gov is the U.S. government's official web portal to all federal, state and local government web resources and services.